• în România
  • Lista ţărilor
  • Pe 7 zile
  • Temperatura apei
  • Hartă satelitară
  • Meteo pe hartă
  • Widget-uri
  • user-avatar
    Intrare

    Meteo pe oră la Abomey

    Astăzi, 17 Decembrie, Duminică

    Timp Temperatura Precipitaţii Vânt Presiune Umiditate
    00:00 +28°C° 0 mm 2 m/s 738 mmHg 76%
    01:00 +28°C° 0 mm 2 m/s 738 mmHg 78%
    02:00 +27°C° 0 mm 2 m/s 738 mmHg 79%
    03:00 +27°C° 0 mm 2 m/s 738 mmHg 81%
    04:00 +27°C° 0 mm 1 m/s 738 mmHg 82%
    05:00 +26°C° 0 mm 1 m/s 738 mmHg 84%
    06:00 +26°C° 0 mm 1 m/s 738 mmHg 85%
    07:00 +28°C° 0 mm 1 m/s 738 mmHg 75%
    08:00 +30°C° 0 mm 2 m/s 739 mmHg 66%
    09:00 +32°C° 0 mm 2 m/s 739 mmHg 57%
    10:00 +35°C° 0 mm 1 m/s 739 mmHg 46%
    11:00 +39°C° 0 mm 1 m/s 739 mmHg 36%
    12:00 +38°C° 0 mm 0 m/s 738 mmHg 25%
    13:00 +38°C° 0 mm 0 m/s 738 mmHg 24%
    14:00 +41°C° 0 mm 1 m/s 737 mmHg 23%
    15:00 +40°C° 0 mm 1 m/s 737 mmHg 22%
    16:00 +38°C° 0 mm 2 m/s 737 mmHg 30%
    17:00 +36°C° 0 mm 2 m/s 737 mmHg 38%
    18:00 +34°C° 0 mm 3 m/s 737 mmHg 46%
    19:00 +33°C° 0 mm 3 m/s 737 mmHg 55%
    20:00 +30°C° 0 mm 4 m/s 738 mmHg 65%
    21:00 +29°C° 0 mm 4 m/s 739 mmHg 74%
    22:00 +29°C° 0 mm 4 m/s 739 mmHg 75%
    23:00 +28°C° 0 mm 3 m/s 739 mmHg 75%

    Mâine, 18 Decembrie, Luni

    Timp Temperatura Precipitaţii Vânt Presiune Umiditate
    00:00 +28°C° 0 mm 3 m/s 739 mmHg 76%
    01:00 +28°C° 0 mm 3 m/s 738 mmHg 78%
    02:00 +27°C° 0 mm 3 m/s 738 mmHg 80%
    03:00 +27°C° 0 mm 3 m/s 738 mmHg 81%
    04:00 +27°C° 0 mm 3 m/s 738 mmHg 83%
    05:00 +27°C° 0 mm 2 m/s 738 mmHg 84%
    06:00 +26°C° 0 mm 2 m/s 738 mmHg 85%
    07:00 +28°C° 0 mm 2 m/s 738 mmHg 77%
    08:00 +30°C° 0 mm 3 m/s 739 mmHg 70%
    09:00 +31°C° 0 mm 3 m/s 739 mmHg 62%
    10:00 +34°C° 0 mm 3 m/s 739 mmHg 54%
    11:00 +36°C° 0 mm 3 m/s 739 mmHg 47%
    12:00 +37°C° 0 mm 3 m/s 738 mmHg 39%
    13:00 +37°C° 0 mm 3 m/s 738 mmHg 38%
    14:00 +37°C° 0 mm 3 m/s 737 mmHg 38%
    15:00 +37°C° 0 mm 3 m/s 736 mmHg 37%
    16:00 +36°C° 0 mm 4 m/s 736 mmHg 45%
    17:00 +34°C° 0 mm 4 m/s 736 mmHg 52%
    18:00 +32°C° 0 mm 5 m/s 736 mmHg 60%
    19:00 +30°C° 0 mm 4 m/s 737 mmHg 64%
    20:00 +30°C° 0 mm 4 m/s 738 mmHg 69%
    21:00 +29°C° 0 mm 3 m/s 738 mmHg 73%
    22:00 +28°C° 0 mm 3 m/s 738 mmHg 75%
    23:00 +28°C° 0 mm 3 m/s 738 mmHg 77%

    Poimâine, 19 Decembrie, Marţi

    Timp Temperatura Precipitaţii Vânt Presiune Umiditate
    00:00 +28°C° 0 mm 3 m/s 738 mmHg 79%
    01:00 +27°C° 0 mm 3 m/s 738 mmHg 80%
    02:00 +27°C° 0 mm 3 m/s 737 mmHg 80%
    03:00 +27°C° 0 mm 3 m/s 737 mmHg 81%
    04:00 +27°C° 0 mm 3 m/s 737 mmHg 82%
    05:00 +27°C° 0 mm 2 m/s 738 mmHg 82%
    06:00 +26°C° 0 mm 2 m/s 738 mmHg 83%
    07:00 +28°C° 0 mm 2 m/s 738 mmHg 77%
    08:00 +29°C° 0 mm 2 m/s 739 mmHg 71%
    09:00 +30°C° 0 mm 2 m/s 740 mmHg 65%
    10:00 +33°C° 0,1 mm 3 m/s 739 mmHg 58%
    11:00 +34°C° 0,1 mm 3 m/s 739 mmHg 51%
    12:00 +36°C° 0,1 mm 3 m/s 738 mmHg 44%
    13:00 +36°C° 0 mm 3 m/s 737 mmHg 44%
    14:00 +36°C° 0 mm 3 m/s 737 mmHg 44%
    15:00 +36°C° 0 mm 3 m/s 736 mmHg 44%
    16:00 +34°C° 0 mm 3 m/s 736 mmHg 49%
    17:00 +33°C° 0 mm 4 m/s 736 mmHg 54%
    18:00 +32°C° 0 mm 4 m/s 737 mmHg 58%
    19:00 +30°C° 0,4 mm 4 m/s 737 mmHg 63%
    20:00 +29°C° 0,4 mm 3 m/s 738 mmHg 68%
    21:00 +28°C° 0,4 mm 3 m/s 738 mmHg 73%
    22:00 +28°C° 0 mm 3 m/s 738 mmHg 74%
    23:00 +28°C° 0 mm 3 m/s 738 mmHg 76%

    20 Decembrie, Miercuri

    Timp Temperatura Precipitaţii Vânt Presiune Umiditate
    00:00 +27°C° 0 mm 3 m/s 738 mmHg 78%
    01:00 +27°C° 0 mm 3 m/s 738 mmHg 79%
    02:00 +27°C° 0 mm 3 m/s 737 mmHg 80%
    03:00 +27°C° 0 mm 3 m/s 737 mmHg 81%
    04:00 +26°C° 0 mm 2 m/s 737 mmHg 83%
    05:00 +26°C° 0 mm 2 m/s 737 mmHg 84%
    06:00 +26°C° 0 mm 1 m/s 737 mmHg 85%
    07:00 +28°C° 0 mm 1 m/s 738 mmHg 76%
    08:00 +29°C° 0 mm 2 m/s 739 mmHg 67%
    09:00 +31°C° 0 mm 2 m/s 739 mmHg 59%
    10:00 +34°C° 0 mm 2 m/s 739 mmHg 51%
    11:00 +36°C° 0 mm 2 m/s 738 mmHg 44%
    12:00 +37°C° 0 mm 1 m/s 738 mmHg 37%
    13:00 +37°C° 0,1 mm 1 m/s 737 mmHg 36%
    14:00 +37°C° 0,1 mm 1 m/s 737 mmHg 36%
    15:00 +37°C° 0,1 mm 1 m/s 736 mmHg 35%
    16:00 +36°C° 0,1 mm 2 m/s 736 mmHg 40%
    17:00 +35°C° 0,1 mm 3 m/s 736 mmHg 45%
    18:00 +34°C° 0,1 mm 3 m/s 737 mmHg 50%
    19:00 +31°C° 0,1 mm 3 m/s 737 mmHg 58%
    20:00 +30°C° 0,1 mm 3 m/s 738 mmHg 67%
    21:00 +28°C° 0,1 mm 3 m/s 738 mmHg 75%
    22:00 +28°C° 0 mm 3 m/s 738 mmHg 76%
    23:00 +28°C° 0 mm 3 m/s 738 mmHg 77%

    21 Decembrie, Joi

    Timp Temperatura Precipitaţii Vânt Presiune Umiditate
    00:00 +27°C° 0 mm 3 m/s 738 mmHg 78%
    01:00 +27°C° 0 mm 3 m/s 738 mmHg 80%
    02:00 +27°C° 0 mm 3 m/s 737 mmHg 81%
    03:00 +27°C° 0 mm 2 m/s 737 mmHg 83%
    04:00 +26°C° 0 mm 2 m/s 737 mmHg 84%
    05:00 +26°C° 0 mm 2 m/s 738 mmHg 85%
    06:00 +26°C° 0 mm 2 m/s 738 mmHg 87%
    07:00 +28°C° 0 mm 2 m/s 739 mmHg 79%
    08:00 +29°C° 0 mm 2 m/s 739 mmHg 71%
    09:00 +31°C° 0 mm 2 m/s 740 mmHg 64%
    10:00 +34°C° 0 mm 2 m/s 739 mmHg 55%
    11:00 +36°C° 0 mm 2 m/s 739 mmHg 47%
    12:00 +37°C° 0 mm 1 m/s 738 mmHg 38%
    13:00 +38°C° 0 mm 2 m/s 738 mmHg 38%
    14:00 +37°C° 0 mm 2 m/s 737 mmHg 39%
    15:00 +37°C° 0 mm 2 m/s 736 mmHg 39%
    16:00 +35°C° 0,7 mm 3 m/s 737 mmHg 47%
    17:00 +34°C° 0,7 mm 3 m/s 737 mmHg 54%
    18:00 +32°C° 0,7 mm 4 m/s 737 mmHg 62%
    19:00 +30°C° 0,1 mm 4 m/s 738 mmHg 67%
    20:00 +29°C° 0,1 mm 4 m/s 738 mmHg 72%
    21:00 +28°C° 0,1 mm 3 m/s 739 mmHg 77%
    22:00 +28°C° 0 mm 3 m/s 739 mmHg 78%
    23:00 +28°C° 0 mm 3 m/s 739 mmHg 80%

    22 Decembrie, Vineri

    Timp Temperatura Precipitaţii Vânt Presiune Umiditate
    00:00 +27°C° 0 mm 3 m/s 739 mmHg 81%
    01:00 +27°C° 0 mm 3 m/s 738 mmHg 82%
    02:00 +27°C° 0 mm 2 m/s 738 mmHg 83%
    03:00 +27°C° 0 mm 2 m/s 738 mmHg 85%
    04:00 +26°C° 0 mm 2 m/s 738 mmHg 85%
    05:00 +26°C° 0 mm 1 m/s 739 mmHg 86%
    06:00 +26°C° 0 mm 1 m/s 739 mmHg 86%
    07:00 +28°C° 0,3 mm 1 m/s 739 mmHg 79%
    08:00 +29°C° 0,3 mm 2 m/s 740 mmHg 72%
    09:00 +30°C° 0,3 mm 2 m/s 740 mmHg 64%
    10:00 +32°C° 0 mm 2 m/s 740 mmHg 56%
    11:00 +34°C° 0 mm 1 m/s 739 mmHg 47%
    12:00 +36°C° 0 mm 1 m/s 739 mmHg 38%
    13:00 +36°C° 0 mm 1 m/s 738 mmHg 37%
    14:00 +36°C° 0 mm 1 m/s 737 mmHg 35%
    15:00 +36°C° 0 mm 1 m/s 736 mmHg 33%
    16:00 +35°C° 0 mm 1 m/s 737 mmHg 36%
    17:00 +35°C° 0 mm 2 m/s 737 mmHg 39%
    18:00 +34°C° 0 mm 2 m/s 737 mmHg 42%
    19:00 +33°C° 0 mm 3 m/s 738 mmHg 51%
    20:00 +30°C° 0 mm 3 m/s 738 mmHg 59%
    21:00 +29°C° 0 mm 4 m/s 738 mmHg 68%
    22:00 +28°C° 0 mm 3 m/s 738 mmHg 71%
    23:00 +28°C° 0 mm 3 m/s 738 mmHg 73%
    Arată mai mult

    XHprof extension not loaded